Weather Roundup
Issued by NWS

Home | Current Version | Previous Version | Graphics & Text | Print | Product List | Glossary Off
Versions: 1 2 3 4 5 6 7 8 9 10 11 12 13 14 15 16 17 18 19 20 21 22 23 24 25 26 27 28 29 30 31 32 33 34 35 36 37 38 39 40 41 42 43 44 45 46 47 48 49 50

787
NZUS93 KARX 240710
HRRWXR

CURRENT HOURLY OBSERVATIONS ACROSS
MUCH OF THE UPPER MISSISSIPPI VALLEY
NATIONAL WEATHER SERVICE LA CROSSE WI
100 AM CST SAT FEB 24 2018


...SOUTHEAST MINNESOTA...


CITY           SKY/WX    TMP DP  RH WIND       PRES   REMARKS
ROCHESTER      FAIR      13  12  96 CALM      30.25S FOG
ROCHESTER/MAYO FAIR      18  17  94 W3        30.26F
WINONA         FAIR      14  12  92 CALM      30.29S FOG
AUSTIN         FOG       12   9  85 CALM      30.25  VSB 1/2
ALBERT LEA     FOG       12  10  92 CALM      30.25F VSB<1/4
DODGE CENTER   FOG        7   3  85 CALM      30.25S VSB<1/4
PRESTON        FAIR      14  12  91 CALM      30.26F FOG
OWATONNA       FOG        7   3  85 CALM      30.26S VSB<1/4
FARIBAULT      MOCLDY    10   9  92 S5        30.27R FOG     WCI   2
$$

...ELSEWHERE IN MINNESOTA...


CITY           SKY/WX    TMP DP  RH WIND       PRES   REMARKS
MINNEAPOLIS    FAIR      14  11  87 CALM      30.26F
INTNL FALLS    FAIR       1  -1  91 SW5       30.18S WCI  -9
DULUTH         FAIR      16   8  71 NW6       30.18S WCI   7
RED WING       FAIR      10   5  79 CALM      30.26F
REDWOOD FALLS  CLOUDY     5   3  91 CALM      30.25S FOG
MANKATO        FOG        6   3  87 CALM      30.28S VSB 1/4
WORTHINGTON    FOG       13  11  92 NE6       30.22F VSB 1/4 WCI   4
FAIRMONT       FOG        5   2  87 NW5       30.26F VSB 1/4 WCI  -4
$$

...SOUTHWEST WISCONSIN...


CITY           SKY/WX    TMP DP  RH WIND       PRES   REMARKS
LA CROSSE      NOT AVBL
PRAIRIE DU CHI FAIR      24  19  83 N3        30.30S
BOSCOBEL       CLOUDY    28  22  78 NE6       30.30S WCI  22
LONE ROCK      CLOUDY    28  23  81 NE8       30.29F WCI  20
PLATTEVILLE    FAIR      25  25  99 CALM      30.27S
FORT MC COY    FAIR      19  19  97 CALM      30.30S FOG
CAMP DOUGLAS   FAIR      20  20  98 CALM      30.28R
MAUSTON-NEW LI FAIR      23  22  94 CALM      30.28S FOG
VIROQUA        FAIR      24  23  99 CALM      30.26S
WIS DELLS      CLOUDY    27  22  81 CALM      30.27F
$$

...ELSEWHERE IN WISCONSIN...


CITY           SKY/WX    TMP DP  RH WIND       PRES   REMARKS
MILWAUKEE      FAIR      31  25  78 N5        30.28R WCI  26
MADISON        CLOUDY    28  24  85 N8        30.28F WCI  20
GREEN BAY      CLOUDY    32  22  66 W3        30.27R
EAU CLAIRE     FOG       10   8  92 CALM      30.24F VSB 1/4
BLACK RVR FLS  FAIR      15  15  99 CALM      30.28R FOG
MEDFORD        FOG        9   7  89 CALM      30.20F VSB<1/4
WAUSAU         FAIR      20  19  96 NW7       30.21F FOG     WCI  11
WIS RAPIDS     FAIR      20  17  88 S3        30.27R FOG
MARSHFIELD     FAIR      18  16  92 NW5       30.21F FOG     WCI  11
RICE LAKE      FOG        0  -3  86 CALM      30.26F VSB<1/4
$$

...NORTHEAST IOWA...


CITY           SKY/WX    TMP DP  RH WIND       PRES   REMARKS
WATERLOO       FAIR      21  20  96 N3        30.27F
DUBUQUE        FAIR      24  20  84 N8        30.25F FOG     WCI  15
DECORAH        FAIR      19  19 100 N6        30.26F WCI  11
MASON CITY     FOG       15  13  91 CALM      30.26F VSB 1/4
CHARLES CITY   FAIR      18  18 100 NE5       30.27F WCI  11
OELWEIN        FAIR      23  23 100 NE3       30.27S
$$

...ELSEWHERE IN IOWA...


CITY           SKY/WX    TMP DP  RH WIND       PRES   REMARKS
DES MOINES     CLOUDY    25  20  81 NE12      30.24F WCI  14
IOWA CITY      FAIR      28  23  81 N9        30.27F WCI  19
FORT DODGE     FOG        9   7  92 E5        30.25F VSB 1/4 WCI   1
MARSHALLTOWN   CLOUDY    24  21  88 N6        30.26F WCI  17
CEDAR RAPIDS   FAIR      24  20  84 N8        30.25F FOG     WCI  15
$$

...NORTHERN ILLINOIS...


CITY           SKY/WX    TMP DP  RH WIND       PRES   REMARKS
CHICAGO-OHARE  CLOUDY    33  27  78 N8        30.23F WCI  26
CHICAGO-MIDWAY CLOUDY    35  29  78 N8        30.23F WCI  29
MOLINE         FAIR      30  26  85 N6        30.23F WCI  24
ROCKFORD       CLOUDY    26  25  96 W3        30.27F
PEORIA         FAIR      34  30  85 NE5       30.23S WCI  30
$$

NOTE: "FAIR" INDICATES FEW OR NO CLOUDS BELOW 12,000 FEET WITH NO
SIGNIFICANT WEATHER AND/OR OBSTRUCTIONS TO VISIBILITY. WIND
SPEEDS ARE IN MILES-PER-HOUR.




USA.gov is the U.S. government's official web portal to all federal, state and local government web resources and services.